| time (UTC) | temp C | wind direction | speed KPH | gust KPH | rain 1hr cm | rain 24hr cm | rain mn cm | humidity % | barometer mb |
| 20260902034540 | 16 | 304 | 8.0 | 17.7 | 0.00 | 0.00 | 0.00 | 91 | 1019.3 |
| 20260902033518 | 16 | 348 | 9.7 | 14.5 | 0.00 | 0.00 | 0.00 | 91 | 1019.2 |
| 20260902032521 | 16 | 265 | 4.8 | 8.0 | 0.00 | 0.00 | 0.00 | 92 | 1019.3 |
| 20260902031517 | 16 | 316 | 8.0 | 16.1 | 0.00 | 0.00 | 0.00 | 92 | 1019.2 |
| 20260902025517 | 16 | 297 | 14.5 | 32.2 | 0.00 | 0.00 | 0.00 | 92 | 1019.4 |
| 20260902024522 | 15 | 337 | 9.7 | 16.1 | 0.00 | 0.00 | 0.00 | 91 | 1019.2 |
| 20260902023518 | 15 | 270 | 6.4 | 11.3 | 0.00 | 0.00 | 0.00 | 91 | 1019.2 |
| 20260902022519 | 15 | 327 | 12.9 | 29.0 | 0.00 | 0.00 | 0.00 | 90 | 1019.0 |
| 20260902021521 | 15 | 183 | 4.8 | 8.0 | 0.00 | 0.00 | 0.00 | 90 | 1019.0 |
| 20260902020541 | 15 | 139 | 11.3 | 17.7 | 0.00 | 0.00 | 0.00 | 89 | 1018.9 |
| 20260902015519 | 16 | 137 | 4.8 | 11.3 | 0.00 | 0.00 | 0.00 | 89 | 1018.8 |
| 20260902014517 | 16 | 20 | 20.9 | 33.8 | 0.00 | 0.00 | 0.00 | 90 | 1018.8 |
| 20260902013517 | 15 | 22 | 14.5 | 17.7 | 0.00 | 0.00 | 0.00 | 89 | 1018.8 |
| 20260902012521 | 16 | 57 | 6.4 | 16.1 | 0.00 | 0.00 | 0.00 | 88 | 1018.9 |
| 20260902011517 | 16 | 151 | 9.7 | 14.5 | 0.00 | 0.00 | 0.00 | 87 | 1018.8 |
| 20260902010517 | 16 | 176 | 3.2 | 11.3 | 0.00 | 0.00 | 0.00 | 87 | 1018.6 |
| 20260902005517 | 16 | 14 | 8.0 | 12.9 | 0.00 | 0.00 | 0.00 | 88 | 1018.5 |
| 20260902004518 | 16 | 349 | 17.7 | 27.4 | 0.00 | 0.00 | 0.00 | 88 | 1018.5 |
| 20260902003518 | 16 | 329 | 8.0 | 11.3 | 0.00 | 0.00 | 0.00 | 88 | 1018.5 |
| 20260902002522 | 16 | 26 | 11.3 | 17.7 | 0.00 | 0.00 | 0.00 | 87 | 1018.5 |
| 20260902001519 | 16 | 153 | 4.8 | 11.3 | 0.00 | 0.00 | 0.00 | 87 | 1018.6 |
| 20260902000521 | 16 | 128 | 3.2 | 8.0 | 0.00 | 0.00 | 0.00 | 85 | 1018.6 |
| 20260901235518 | 17 | 156 | 1.6 | 8.0 | 0.00 | 0.00 | 0.00 | 84 | 1018.5 |
| 20260901234522 | 17 | 161 | 4.8 | 11.3 | 0.00 | 0.00 | 0.00 | 83 | 1018.4 |
| 20260901233518 | 17 | 26 | 4.8 | 8.0 | 0.00 | 0.00 | 0.00 | 82 | 1018.3 |
| 20260901232519 | 17 | 359 | 8.0 | 12.9 | 0.00 | 0.00 | 0.00 | 81 | 1018.2 |
| 20260901231517 | 17 | 3 | 14.5 | 17.7 | 0.00 | 0.00 | 0.00 | 82 | 1018.2 |
| 20260901230521 | 17 | 12 | 16.1 | 19.3 | 0.00 | 0.00 | 0.00 | 82 | 1018.1 |
| 20260901225518 | 17 | 14 | 14.5 | 17.7 | 0.00 | 0.00 | 0.00 | 83 | 1018.2 |
| 20260901224522 | 17 | 7 | 8.0 | 12.9 | 0.00 | 0.00 | 0.00 | 85 | 1018.3 |
| 20260901223518 | 17 | 350 | 3.2 | 11.3 | 0.00 | 0.00 | 0.00 | 84 | 1018.4 |
| 20260901222521 | 17 | 289 | 3.2 | 11.3 | 0.00 | 0.00 | 0.00 | 84 | 1018.5 |
| 20260901221517 | 17 | 307 | 8.0 | 14.5 | 0.00 | 0.00 | 0.00 | 84 | 1018.5 |
| 20260901220539 | 17 | 328 | 8.0 | 17.7 | 0.00 | 0.00 | 0.00 | 84 | 1018.4 |
| 20260901215517 | 17 | 314 | 8.0 | 17.7 | 0.00 | 0.00 | 0.00 | 84 | 1018.4 |
| 20260901214521 | 17 | 313 | 9.7 | 16.1 | 0.00 | 0.00 | 0.00 | 84 | 1018.3 |
| 20260901213538 | 17 | 299 | 1.6 | 8.0 | 0.00 | 0.00 | 0.00 | 84 | 1018.3 |
| 20260901212518 | 18 | 299 | 1.6 | 8.0 | 0.00 | 0.00 | 0.00 | 84 | 1018.2 |
| 20260901211517 | 18 | 317 | 1.6 | 8.0 | 0.00 | 0.00 | 0.00 | 83 | 1018.2 |
| 20260901210521 | 18 | 320 | 3.2 | 8.0 | 0.00 | 0.00 | 0.00 | 83 | 1018.2 |
| 20260901205518 | 18 | 198 | 3.2 | 6.4 | 0.00 | 0.00 | 0.00 | 82 | 1018.1 |
| 20260901204522 | 18 | 185 | 6.4 | 9.7 | 0.00 | 0.00 | 0.00 | 82 | 1018.1 |
| 20260901203518 | 18 | 153 | 8.0 | 11.3 | 0.00 | 0.00 | 0.00 | 82 | 1017.9 |
| 20260901202523 | 18 | 146 | 8.0 | 11.3 | 0.00 | 0.00 | 0.00 | 81 | 1017.9 |
| 20260901201517 | 18 | 153 | 3.2 | 8.0 | 0.00 | 0.00 | 0.00 | 80 | 1017.8 |
| 20260901200518 | 19 | 170 | 1.6 | 8.0 | 0.00 | 0.00 | 0.00 | 79 | 1017.8 |
| 20260901195521 | 20 | 190 | 8.0 | 11.3 | 0.00 | 0.00 | 0.00 | 78 | 1017.8 |
| 20260901194522 | 20 | 341 | 12.9 | 24.1 | 0.00 | 0.00 | 0.00 | 77 | 1017.6 |
| 20260901193539 | 20 | 341 | 14.5 | 24.1 | 0.00 | 0.00 | 0.00 | 76 | 1017.7 |
| 20260901192541 | 20 | 343 | 17.7 | 32.2 | 0.00 | 0.00 | 0.00 | 76 | 1017.6 |
| 20260901191517 | 20 | 338 | 19.3 | 27.4 | 0.00 | 0.00 | 0.00 | 76 | 1017.7 |
| 20260901190517 | 20 | 328 | 11.3 | 20.9 | 0.00 | 0.00 | 0.00 | 75 | 1017.7 |
| 20260901185518 | 21 | 317 | 14.5 | 24.1 | 0.00 | 0.00 | 0.00 | 75 | 1017.7 |
| 20260901184522 | 21 | 322 | 16.1 | 29.0 | 0.00 | 0.00 | 0.00 | 75 | 1017.7 |
| 20260901183538 | 21 | 323 | 14.5 | 25.7 | 0.00 | 0.00 | 0.00 | 75 | 1017.6 |
| 20260901182521 | 21 | 320 | 17.7 | 25.7 | 0.00 | 0.00 | 0.00 | 75 | 1017.5 |
| 20260901181537 | 21 | 324 | 16.1 | 27.4 | 0.00 | 0.00 | 0.00 | 75 | 1017.5 |
| 20260901180521 | 20 | 336 | 14.5 | 20.9 | 0.00 | 0.00 | 0.00 | 75 | 1017.4 |
| 20260901175518 | 20 | 339 | 16.1 | 20.9 | 0.00 | 0.00 | 0.00 | 75 | 1017.3 |
| 20260901174539 | 21 | 340 | 11.3 | 20.9 | 0.00 | 0.00 | 0.00 | 75 | 1017.3 |
| 20260901173541 | 21 | 319 | 12.9 | 20.9 | 0.00 | 0.00 | 0.00 | 74 | 1017.1 |
| 20260901172542 | 21 | 325 | 14.5 | 27.4 | 0.00 | 0.00 | 0.00 | 73 | 1016.9 |
| 20260901171518 | 21 | 313 | 22.5 | 41.8 | 0.00 | 0.00 | 0.00 | 73 | 1016.8 |
| 20260901170520 | 21 | 306 | 17.7 | 27.4 | 0.00 | 0.00 | 0.00 | 73 | 1016.7 |
| 20260901165517 | 21 | 306 | 17.7 | 25.7 | 0.00 | 0.00 | 0.00 | 73 | 1016.7 |
| 20260901164521 | 21 | 315 | 14.5 | 25.7 | 0.00 | 0.00 | 0.00 | 72 | 1016.6 |
| 20260901163518 | 21 | 315 | 17.7 | 32.2 | 0.00 | 0.00 | 0.00 | 72 | 1016.5 |
| 20260901162539 | 22 | 303 | 17.7 | 25.7 | 0.00 | 0.00 | 0.00 | 72 | 1016.4 |
| 20260901161517 | 22 | 329 | 14.5 | 25.7 | 0.00 | 0.00 | 0.00 | 72 | 1016.5 |
| 20260901160522 | 22 | 322 | 14.5 | 33.8 | 0.00 | 0.00 | 0.00 | 71 | 1016.4 |
| 20260901155539 | 22 | 306 | 20.9 | 37.0 | 0.00 | 0.00 | 0.00 | 72 | 1016.4 |
| 20260901154541 | 22 | 338 | 19.3 | 37.0 | 0.00 | 0.00 | 0.00 | 72 | 1016.3 |
| 20260901153518 | 22 | 304 | 29.0 | 40.2 | 0.00 | 0.00 | 0.00 | 71 | 1016.3 |
| 20260901152522 | 22 | 312 | 24.1 | 41.8 | 0.00 | 0.00 | 0.00 | 71 | 1016.2 |
| 20260901151516 | 22 | 323 | 22.5 | 32.2 | 0.00 | 0.00 | 0.00 | 70 | 1016.2 |
| 20260901150519 | 22 | 310 | 32.2 | 54.7 | 0.00 | 0.00 | 0.00 | 70 | 1016.2 |
| 20260901145518 | 23 | 318 | 27.4 | 43.5 | 0.00 | 0.00 | 0.00 | 68 | 1016.1 |
| 20260901144522 | 23 | 307 | 41.8 | 77.2 | 0.00 | 0.00 | 0.00 | 68 | 1016.1 |
| 20260901143516 | 23 | 313 | 38.6 | 59.5 | 0.00 | 0.00 | 0.00 | 68 | 1016.1 |
| 20260901142521 | 22 | 303 | 43.5 | 57.9 | 0.00 | 0.00 | 0.00 | 69 | 1016.2 |
| 20260901141518 | 23 | 298 | 40.2 | 62.8 | 0.00 | 0.00 | 0.00 | 68 | 1016.2 |
| 20260901140520 | 23 | 294 | 43.5 | 78.9 | 0.00 | 0.00 | 0.00 | 67 | 1016.1 |
| 20260901135519 | 24 | 302 | 48.3 | 69.2 | 0.00 | 0.00 | 0.00 | 65 | 1015.9 |
| 20260901134521 | 25 | 301 | 41.8 | 61.2 | 0.00 | 0.00 | 0.00 | 65 | 1015.8 |
| 20260901133518 | 25 | 294 | 40.2 | 49.9 | 0.00 | 0.00 | 0.00 | 65 | 1015.8 |
| 20260901132517 | 25 | 308 | 35.4 | 64.4 | 0.00 | 0.00 | 0.00 | 64 | 1015.8 |
| 20260901131517 | 24 | 296 | 41.8 | 82.1 | 0.00 | 0.00 | 0.00 | 66 | 1015.8 |
| 20260901130522 | 23 | 282 | 57.9 | 80.5 | 0.00 | 0.00 | 0.00 | 66 | 1015.9 |
| 20260901125517 | 23 | 285 | 51.5 | 67.6 | 0.00 | 0.00 | 0.00 | 68 | 1015.8 |
| 20260901124522 | 23 | 291 | 46.7 | 67.6 | 0.00 | 0.00 | 0.00 | 68 | 1015.7 |
| 20260901123518 | 23 | 299 | 43.5 | 64.4 | 0.00 | 0.00 | 0.00 | 67 | 1015.8 |
| 20260901122601 | 23 | 293 | 40.2 | 62.8 | 0.00 | 0.00 | 0.00 | 66 | 1015.8 |
| 20260901121517 | 23 | 283 | 37.0 | 56.3 | 0.00 | 0.00 | 0.00 | 63 | 1015.6 |
| 20260901120517 | 24 | 288 | 29.0 | 37.0 | 0.00 | 0.00 | 0.00 | 62 | 1015.6 |
| 20260901115518 | 24 | 293 | 30.6 | 48.3 | 0.00 | 0.00 | 0.00 | 62 | 1015.7 |
| 20260901114522 | 24 | 286 | 38.6 | 59.5 | 0.00 | 0.00 | 0.00 | 61 | 1015.8 |
| 20260901113517 | 25 | 273 | 43.5 | 66.0 | 0.00 | 0.00 | 0.00 | 60 | 1015.6 |
| 20260901112521 | 25 | 277 | 43.5 | 64.4 | 0.00 | 0.00 | 0.00 | 58 | 1015.5 |
| 20260901111518 | 25 | 302 | 24.1 | 41.8 | 0.00 | 0.00 | 0.00 | 57 | 1015.3 |
| 20260901110522 | 25 | 294 | 19.3 | 33.8 | 0.00 | 0.00 | 0.00 | 57 | 1015.2 |
| 20260901105517 | 25 | 255 | 27.4 | 38.6 | 0.00 | 0.00 | 0.00 | 56 | 1015.3 |
| 20260901104557 | 25 | 257 | 32.2 | 45.1 | 0.00 | 0.00 | 0.00 | 56 | 1015.4 |
| 20260901103520 | 25 | 237 | 30.6 | 40.2 | 0.00 | 0.00 | 0.00 | 55 | 1015.2 |
| 20260901102517 | 25 | 241 | 25.7 | 33.8 | 0.00 | 0.00 | 0.00 | 54 | 1015.1 |
| 20260901101522 | 25 | 233 | 33.8 | 46.7 | 0.00 | 0.00 | 0.00 | 52 | 1015.1 |
| 20260901100522 | 26 | 219 | 27.4 | 37.0 | 0.00 | 0.00 | 0.00 | 50 | 1015.1 |
| 20260901095517 | 26 | 251 | 27.4 | 41.8 | 0.00 | 0.00 | 0.00 | 48 | 1015.0 |
| 20260901094518 | 26 | 256 | 29.0 | 41.8 | 0.00 | 0.00 | 0.00 | 48 | 1015.1 |
| 20260901093518 | 26 | 250 | 25.7 | 38.6 | 0.00 | 0.00 | 0.00 | 49 | 1014.9 |
| 20260901092521 | 25 | 223 | 27.4 | 38.6 | 0.00 | 0.00 | 0.00 | 48 | 1014.9 |
| 20260901091518 | 25 | 203 | 19.3 | 29.0 | 0.00 | 0.00 | 0.00 | 49 | 1014.8 |
| 20260901090522 | 25 | 171 | 16.1 | 20.9 | 0.00 | 0.00 | 0.00 | 51 | 1014.8 |
| 20260901085519 | 25 | 124 | 12.9 | 25.7 | 0.00 | 0.00 | 0.00 | 52 | 1014.6 |
| 20260901084522 | 25 | 125 | 12.9 | 17.7 | 0.00 | 0.00 | 0.00 | 52 | 1014.7 |
| 20260901083517 | 25 | 153 | 11.3 | 19.3 | 0.00 | 0.00 | 0.00 | 51 | 1014.8 |
| 20260901082542 | 25 | 136 | 17.7 | 29.0 | 0.00 | 0.00 | 0.00 | 50 | 1014.8 |
| 20260901081518 | 25 | 123 | 20.9 | 35.4 | 0.00 | 0.00 | 0.00 | 50 | 1014.7 |
| 20260901080523 | 25 | 168 | 20.9 | 33.8 | 0.00 | 0.00 | 0.00 | 49 | 1014.7 |
| 20260901075516 | 24 | 128 | 20.9 | 45.1 | 0.00 | 0.00 | 0.00 | 50 | 1014.6 |
| 20260901074541 | 24 | 124 | 25.7 | 41.8 | 0.00 | 0.00 | 0.00 | 50 | 1014.4 |
| 20260901073517 | 24 | 134 | 30.6 | 51.5 | 0.00 | 0.00 | 0.00 | 50 | 1014.3 |
| 20260901072521 | 24 | 127 | 25.7 | 37.0 | 0.00 | 0.00 | 0.00 | 49 | 1014.4 |
| 20260901071518 | 23 | 126 | 25.7 | 41.8 | 0.00 | 0.00 | 0.00 | 51 | 1014.4 |
| 20260901070522 | 23 | 112 | 27.4 | 40.2 | 0.00 | 0.00 | 0.00 | 53 | 1014.5 |
| 20260901065518 | 23 | 114 | 29.0 | 46.7 | 0.00 | 0.00 | 0.00 | 53 | 1014.4 |
| 20260901064521 | 22 | 109 | 29.0 | 45.1 | 0.00 | 0.00 | 0.00 | 54 | 1014.4 |
| 20260901063517 | 22 | 111 | 22.5 | 41.8 | 0.00 | 0.00 | 0.00 | 57 | 1014.3 |
| 20260901062521 | 22 | 101 | 25.7 | 33.8 | 0.00 | 0.00 | 0.00 | 57 | 1014.2 |
| 20260901061518 | 22 | 107 | 25.7 | 37.0 | 0.00 | 0.00 | 0.00 | 56 | 1014.3 |
| 20260901060520 | 21 | 117 | 19.3 | 35.4 | 0.00 | 0.00 | 0.00 | 56 | 1014.3 |
| 20260901055521 | 21 | 116 | 14.5 | 32.2 | 0.00 | 0.00 | 0.00 | 58 | 1014.3 |
| 20260901054521 | 21 | 118 | 20.9 | 29.0 | 0.00 | 0.00 | 0.00 | 58 | 1014.3 |
| 20260901053522 | 21 | 106 | 20.9 | 30.6 | 0.00 | 0.00 | 0.00 | 58 | 1014.3 |
| 20260901052542 | 21 | 101 | 20.9 | 32.2 | 0.00 | 0.00 | 0.00 | 57 | 1014.3 |
| 20260901051518 | 21 | 121 | 27.4 | 37.0 | 0.00 | 0.00 | 0.00 | 57 | 1014.4 |
| 20260901050517 | 21 | 117 | 25.7 | 38.6 | 0.00 | 0.00 | 0.00 | 55 | 1014.3 |
| 20260901045537 | 21 | 94 | 20.9 | 32.2 | 0.00 | 0.00 | 0.00 | 52 | 1014.2 |
| 20260901044522 | 21 | 122 | 19.3 | 32.2 | 0.00 | 0.00 | 0.00 | 53 | 1014.3 |
| 20260901043537 | 21 | 101 | 17.7 | 24.1 | 0.00 | 0.00 | 0.00 | 53 | 1014.3 |
| 20260901042521 | 20 | 98 | 22.5 | 33.8 | 0.00 | 0.00 | 0.00 | 55 | 1014.2 |
| 20260901041517 | 20 | 106 | 20.9 | 27.4 | 0.00 | 0.00 | 0.00 | 56 | 1014.2 |
| 20260901040521 | 19 | 105 | 20.9 | 32.2 | 0.00 | 0.00 | 0.00 | 56 | 1014.0 |
| 20260901035517 | 19 | 97 | 24.1 | 33.8 | 0.00 | 0.00 | 0.00 | 56 | 1014.0 |